Flag for Germany Weather past 2 weeks in Stuhr, Lower Saxony, Germany

Now
59 °F

Scattered clouds.


Feels Like: 60 °F
Forecast: 47 / 57 °F
Wind: 3 mph from North

Location: Bremen Airport

Current Time: May 24, 2015 at 2:11:14 PM

Latest Report: May 24, 2015 at 1:20 PM


Visibility: N/A

Pressure: 30.09 "Hg

Humidity: 59%

Dew point: 45 °F

Location of StuhrLocation

Historic Weather in Stuhr — Graph

°F

Stuhr temperature yesterday

Maximum temperature yesterday: 59 °F (at 2:50 PM)
Minimum temperature yesterday: 46 °F (at 11:20 PM)
Average temperature yesterday: 54 °F

Past Weeks' High & Low Weather Summary

 TemperatureHumidityPressure
High75 °F (May 11, 4:50 PM)100% (May 16, 1:50 AM)30.33 "Hg (May 16, 1:50 AM)
Low34 °F (May 16, 5:20 AM)36% (May 11, 6:20 PM)29.59 "Hg (May 18, 7:20 PM)
Average53 °F73%30.05 "Hg
* Reported May 9 12:20 PM — May 24 12:50 PM, Stuhr, Weather by CustomWeather, © 2015

Note: Actual official high and low records may vary slightly from our data, if they occured in-between our weather recording intervals... More about our weather records

Advertising

Stuhr weather history for previous 24 hours

 ConditionsComfort  
Time TempWeatherWind HumidityBarometerVisibility
12:50 PM
Sun, May 24
59 °FPassing clouds.2 mph55%30.12 "HgN/A
12:20 PM59 °FPassing clouds.3 mph59%30.12 "HgN/A
11:50 AM59 °FPassing clouds.3 mph59%30.12 "HgN/A
11:20 AM55 °FPassing clouds.3 mph63%30.12 "HgN/A
10:50 AM55 °FPassing clouds.3 mph59%30.15 "HgN/A
10:20 AM54 °FScattered clouds.3 mph67%30.15 "HgN/A
9:50 AM52 °FPassing clouds.3 mph72%30.15 "HgN/A
9:20 AM54 °FPassing clouds.2 mph72%30.15 "HgN/A
8:50 AM52 °FScattered clouds.1 mph72%30.15 "HgN/A
8:20 AM52 °FPassing clouds.1 mph77%30.15 "HgN/A
7:50 AM48 °FPassing clouds.No wind94%30.15 "HgN/A
7:20 AM43 °FPassing clouds.No wind100%30.15 "HgN/A
6:50 AM39 °FFog.1 mph100%30.15 "HgN/A
6:20 AM36 °FFog.2 mph100%30.15 "Hg5 mi
5:50 AM37 °FFog.1 mph93%30.15 "Hg1 mi
5:20 AM36 °FFog.2 mph100%30.15 "Hg1 mi
4:50 AM36 °FFog.3 mph100%30.15 "Hg1 mi
4:20 AM37 °FFog.2 mph100%30.15 "HgN/A
3:50 AM37 °FFog.2 mph93%30.15 "HgN/A
3:20 AM37 °FChilly.3 mph100%30.18 "HgN/A
2:50 AM37 °FChilly.3 mph100%30.18 "HgN/A
2:20 AM37 °FChilly.2 mph100%30.18 "HgN/A
1:50 AM41 °FClear.2 mph93%30.18 "Hg10 mi
1:20 AM41 °FClear.5 mph87%30.18 "Hg10 mi
12:50 AM45 °FPassing clouds.3 mph76%30.18 "HgN/A
12:20 AM45 °FClear.5 mph81%30.18 "Hg10 mi
11:50 PM
Sat, May 23
48 °FClear.6 mph76%30.18 "Hg10 mi
11:20 PM46 °FClear.6 mph76%30.18 "Hg10 mi
10:50 PM48 °FClear.6 mph76%30.18 "Hg10 mi
10:20 PM50 °FPassing clouds.9 mph71%30.18 "HgN/A
9:50 PM50 °FSunny.12 mph71%30.18 "Hg10 mi
9:20 PM50 °FSunny.12 mph71%30.18 "Hg10 mi
8:50 PM52 °FSunny.10 mph67%30.18 "Hg10 mi
8:20 PM52 °FPassing clouds.13 mph67%30.18 "HgN/A
7:50 PM52 °FSunny.12 mph67%30.18 "Hg10 mi
7:20 PM54 °FSunny.13 mph63%30.15 "Hg10 mi
6:50 PM55 °FPassing clouds.13 mph59%30.15 "HgN/A
6:20 PM55 °FPassing clouds.13 mph59%30.15 "HgN/A
5:50 PM57 °FPassing clouds.13 mph59%30.15 "HgN/A
5:20 PM57 °FPassing clouds.14 mph55%30.15 "HgN/A
4:50 PM59 °FPartly sunny.13 mph51%30.15 "HgN/A
4:20 PM59 °FPartly sunny.13 mph55%30.15 "HgN/A
3:50 PM59 °FPartly sunny.14 mph55%30.15 "HgN/A
3:20 PM59 °FPartly sunny.13 mph59%30.15 "HgN/A
2:50 PM59 °FPartly sunny.10 mph63%30.15 "HgN/A
2:20 PM57 °FBroken clouds.8 mph67%30.15 "HgN/A
Weather by CustomWeather, © 2015

See weather overviewHow to use our weather pages